Regional Weather Roundup
Issued by NWS

Home | Current Version | Previous Version | Graphics & Text | Print | Product List | Glossary On
Versions: 1 2 3 4 5 6 7 8 9 10 11 12 13 14 15 16 17 18 19 20 21 22 23 24 25 26 27 28 29 30 31 32 33 34 35 36 37 38 39 40 41 42 43 44 45 46 47 48 49 50
000
ASUS43 KDTX 210510
RWRMI
MICHIGAN HOURLY REGIONAL WEATHER ROUNDUP
NATIONAL WEATHER SERVICE DETROIT/PONTIAC MI
1200 AM EST FRI NOV 21 2014

NOTE: "FAIR" INDICATES FEW OR NO CLOUDS BELOW 12,000 FEET WITH NO
SIGNIFICANT WEATHER AND/OR OBSTRUCTION TO VISIBILITY.

MIZ047>049-052>055-059>063-066>070-074>076-081>083-210600-
SOUTHEAST LOWER MICHIGAN

CITY           SKY/WX    TMP DP  RH WIND       PRES   REMARKS
ADRIAN         MOCLDY    16  11  80 W5        30.18R WCI   9
ALMA           CLEAR     12   9  88 W7        30.16R WCI   2
ANN ARBOR      LGT SNOW  19  13  77 NW7       30.17R WCI  10
BAD AXE        CLEAR     17  12  82 W8        30.10R WCI   6
CARO           CLEAR     12   9  85 W7        30.12R WCI   2
DETROIT CITY   PTCLDY    20   9  62 W6        30.17R WCI  12
DETROIT        CLOUDY    19  12  74 W8        30.18R WCI   9
FLINT          CLEAR     13   8  81 W9        30.15R WCI   1
GROSSE ILE     FLURRIES  19  14  79 W7        30.17R WCI  10
HILLSDALE      FLURRIES  16  14  93 W3        30.15R
HOWELL         MOCLDY    15  11  85 W6        30.15R WCI   6

CITY           SKY/WX    TMP DP  RH WIND       PRES   REMARKS
JACKSON        LGT SNOW  17  14  88 NW6       30.16R FOG     WCI   9
LAMBERTVILLE   PTCLDY    16  10  79 CALM      30.19R
LANSING        FLURRIES  14   9  80 W7        30.18R WCI   4
LAPEER         FAIR      11   7  85 W5        30.13R WCI   3
MASON          CLOUDY    16  12  83 NW6       30.16R WCI   7
MONROE         PTCLDY    12   9  85 CALM      30.17R
MT. CLEMENS    CLEAR     15   9  77 W9        30.13R WCI   3
PONTIAC        PTCLDY    13   8  81 W8        30.13R WCI   2
PORT HOPE        N/A     22  12  65 W13G23    30.07R WCI  10
PORT HURON     CLEAR     12   7  79 W3        30.13R
TRI CITIES     CLEAR     14   8  77 W10       30.15R WCI   1
TROY           CLEAR     17  12  78 W7        30.17R WCI   8
SAGINAW HB     CLEAR     16  10  79 W10G16    30.14R WCI   3
$$
MIZ043>046-050>051-056>058-064>065-071>073-077>080-210600-
SOUTHWEST LOWER MICHIGAN

CITY           SKY/WX    TMP DP  RH WIND       PRES   REMARKS
BATTLE CREEK   FLURRIES  21  14  74 NW9       30.17R WCI  11
BENTON HARBOR  CLOUDY    22  10  60 NW13G22   30.23R WCI  10
BIG RAPIDS     CLEAR     11   9  88 W6        30.14R WCI   2
COLDWATER      MOCLDY    22  15  75 NW12      30.17R WCI  10
FREMONT        CLOUDY    16  10  75 W7        30.18R WCI   6
HOLLAND        FLURRIES  22  12  65 NW10G18   30.21R WCI  11
GRAND RAPIDS   CLOUDY    18  10  71 NW8       30.19R WCI   8
IONIA          MOCLDY    15  11  85 W7        30.17R WCI   5
KALAMAZOO      LGT SNOW  21  15  78 NW12      30.19R WCI   9
LUDINGTON      CLOUDY    19   8  60 NW9G16    30.19R WCI   9
MARSHALL       CLOUDY    18  16  93 CALM      30.16R
MOUNT PLEASANT CLEAR     12   9  85 W6        30.15R WCI   3
MUSKEGON       FLURRIES  20   9  62 NW14      30.21R WCI   7
SOUTH HAVEN    CLOUDY    24  14  66 NW10G21   30.22R WCI  13
$$
MIZ016>042-210600-
NORTHERN LOWER MICHIGAN

CITY           SKY/WX    TMP DP  RH WIND       PRES   REMARKS
BEAVER ISLAND  CLOUDY    18  10  69 W8        30.12R WCI   8
BELLAIRE       FLURRIES  19  11  70 NW5       30.13R WCI  13
CADILLAC       LGT SNOW  11   8  87 W5        30.09R WCI   2
CHARLEVOIX     CLOUDY    19   8  62 W15G21    30.14R WCI   4
FRANKFORT      CLOUDY    19   9  65 NW12      30.16R WCI   6
GAYLORD        LGT SNOW  14  10  84 NW5       30.05R FOG     WCI   6
GRAYLING       LGT SNOW  15  12  87 NW8       30.09R WCI   5
HARBOR SPRINGS MOCLDY    17   6  62 NW7       30.10R WCI   7
HOUGHTON LAKE  CLOUDY    11   8  88 W7        30.09R WCI   0
MANISTEE       CLOUDY    19   3  49 NW15      30.17R WCI   5
OSCODA         CLEAR     13  10  85 W9        30.08R WCI   1
PELLSTON       CLOUDY    17   7  64 W12       30.10R WCI   4
ROGERS CITY    MOCLDY    17  12  80 W10G16    30.08R WCI   5
TRAVERSE CITY  CLOUDY    16   7  67 W8        30.14R WCI   5
$$
MIZ007>008-015-210600-
EASTERN UPPER MICHIGAN

CITY           SKY/WX    TMP DP  RH WIND       PRES   REMARKS
KINROSS        CLEAR      9   9 100 W8        30.05R WCI  -4
MACKINAC ISLAN PTCLDY    17  11  78 W12G22    30.08R WCI   4
NEWBERRY       PTCLDY     5   3  90 W12       30.07R WCI -10
S. S. MARIE    CLOUDY    14  11  87 E5        30.06R WCI   6
MUNISING         N/A     13   6  74 W10       30.10R WCI   0
$$
MIZ004>006-011>014-085-210600-
CENTRAL UPPER MICHIGAN

CITY           SKY/WX    TMP DP  RH WIND       PRES   REMARKS
MANISTIQUE     CLEAR      7   2  78 W12       30.12R WCI  -8
ESCANABA       CLEAR      7   0  72 W9        30.15R WCI  -7
MENOMINEE      CLEAR      9   1  72 W7        30.19R WCI  -3
SAWYER-GWINN   CLOUDY     2  -1  85 W6        30.09R WCI  -9
$$
MIZ001>003-009>011-084-210600-
WESTERN UPPER MICHIGAN

CITY           SKY/WX    TMP DP  RH WIND       PRES   REMARKS
IRON MOUNTAIN  CLOUDY     7   2  80 CALM      30.11R
HOUGHTON       LGT SNOW  15   9  76 NW9       30.09R WCI   3
COPPER HARBOR    N/A     20  13  74 N18G25    30.10R WCI   5
IRONWOOD       CLOUDY     9   1  72 W10       30.12R WCI  -6
$$

ABBREVIATIONS USED IN REMARKS
   TC - TEMPERATURE IN CELSIUS
  WCI - WIND CHILL INDEX
   HX - HEAT INDEX
  VSB - VISIBILITY



USA.gov is the U.S. government's official web portal to all federal, state and local government web resources and services.